sat.trackr.live / text

‹ back to catalog

COSMOS 2599 (RODNIK-S *)

NORAD 66649 · 2025-273C

PAYLOAD ACTIVE UNKNOWN

§ Identity

Operator
Country
CIS
Launch date
2025-11-25
Launch site
PLMSC
Launch vehicle
Mass (kg)
RCS (m²)

External: N2YO · Heavens-Above · Gunter

§ Orbital elements

Epoch: 2026-09-20T13:47:58.171776Z

Period
115.86 min
Inclination
82.4993°
Eccentricity
0.0016276
Mean motion
12.42899368 rev/d
Perigee alt
1,481.5 km
Apogee alt
1,507.1 km
Semi-major
7,872.5 km
B*
2.3380e-4
RAAN
111.3561°
Arg perigee
358.8386°
Mean anomaly
1.2654°
Rev number
3,714

§ Raw data

COSMOS 2599 (RODNIK-S *)1 66649U 25273C   26263.57497884  .00000042  00000+0  23380-3 0  99952 66649  82.4993 111.3561 0016276 358.8386   1.2654 12.42899368 37144

JSON: /api/v1/satellites/66649 · /tle

For live sub-satellite position, see the globe view (requires WebGL).

§ Visibility from observer

Set your observer location to see the next 7 days of passes ≥ 10°. The values pass through the URL so the page stays shareable.

No JS? Fill the form by hand. The geolocation button needs JavaScript.